SAS3111 ESGG-ESSA

Flight info

Callsign SAS3111
Flight time 0h 40m
Altitude 31000
Route LABAN N873 ARS T317 ELTOK
Aircraft A320/M-SDE3FGHIRWY/LB1

Departure

Time 2026-05-05 18:34
Airport Göteborg Landvetter Airport (ESGG)

Arrival

Time 2026-05-05 19:14
Airport Stockholm-Arlanda Airport (ESSA)
Time Latitude Longitude Altitude Speed Heading
2026-05-05 18:04 57.66778 12.29312 516 ft 0 kts 116°
2026-05-05 18:26 57.66781 12.29300 516 ft 4 kts 115°
2026-05-05 18:26 57.66791 12.29254 516 ft 4 kts 102°
2026-05-05 18:26 57.66793 12.29205 516 ft 4 kts 74°
2026-05-05 18:26 57.66782 12.29173 516 ft 1 kts 25°
2026-05-05 18:29 57.66783 12.29174 516 ft 1 kts 25°
2026-05-05 18:29 57.66793 12.29183 516 ft 3 kts 25°
2026-05-05 18:30 57.66817 12.29204 516 ft 5 kts 25°
2026-05-05 18:30 57.66853 12.29236 516 ft 7 kts 27°
2026-05-05 18:30 57.66902 12.29282 516 ft 9 kts 26°
2026-05-05 18:30 57.66966 12.29329 516 ft 11 kts 360°
2026-05-05 18:31 57.67008 12.29218 516 ft 12 kts 307°
2026-05-05 18:31 57.67085 12.29223 516 ft 13 kts 27°
2026-05-05 18:31 57.67174 12.29304 516 ft 15 kts 26°
2026-05-05 18:31 57.67277 12.29398 516 ft 18 kts 26°
2026-05-05 18:32 57.67380 12.29483 516 ft 14 kts
2026-05-05 18:32 57.67439 12.29368 515 ft 12 kts 298°
2026-05-05 18:32 57.67462 12.29237 515 ft 8 kts 262°
2026-05-05 18:32 57.67448 12.29106 515 ft 11 kts 253°
2026-05-05 18:33 57.67400 12.28996 515 ft 8 kts 205°
2026-05-05 18:33 57.67396 12.28992 515 ft 4 kts 206°
2026-05-05 18:33 57.67160 12.28777 514 ft 74 kts 206°
2026-05-05 18:33 57.66513 12.28191 514 ft 130 kts 206°
2026-05-05 18:34 57.65569 12.27322 550 ft 168 kts 210°
2026-05-05 18:34 57.64545 12.26371 1207 ft 164 kts 209°
2026-05-05 18:34 57.63521 12.25441 1851 ft 165 kts 207°
2026-05-05 18:34 57.62340 12.24992 2090 ft 187 kts 172°
2026-05-05 18:35 57.61044 12.25856 2309 ft 210 kts 157°
2026-05-05 18:35 57.59658 12.26980 2737 ft 222 kts 158°
2026-05-05 18:35 57.58240 12.28183 3328 ft 227 kts 149°
2026-05-05 18:35 57.57162 12.30299 4019 ft 230 kts 116°
2026-05-05 18:36 57.56853 12.33258 4454 ft 245 kts 80°
2026-05-05 18:36 57.57407 12.36362 4833 ft 264 kts 66°
2026-05-05 18:36 57.58120 12.39623 5433 ft 276 kts 66°
2026-05-05 18:36 57.58851 12.42969 6217 ft 281 kts 66°
2026-05-05 18:37 57.59588 12.46387 7003 ft 286 kts 66°
2026-05-05 18:37 57.60328 12.49854 7728 ft 292 kts 66°
2026-05-05 18:37 57.61081 12.53407 8453 ft 298 kts 66°
2026-05-05 18:37 57.62022 12.56873 9166 ft 301 kts 52°
2026-05-05 18:38 57.63385 12.59834 9867 ft 303 kts 40°
2026-05-05 18:38 57.64904 12.62674 10286 ft 319 kts 40°
2026-05-05 18:38 57.66523 12.65708 10449 ft 341 kts 41°
2026-05-05 18:38 57.68230 12.68922 10854 ft 354 kts 41°
2026-05-05 18:39 57.69978 12.72228 11439 ft 360 kts 41°
2026-05-05 18:39 57.71756 12.75601 12060 ft 366 kts 41°
2026-05-05 18:39 57.73536 12.78986 12653 ft 372 kts 40°
2026-05-05 18:39 57.75360 12.82460 13250 ft 378 kts 40°
2026-05-05 18:40 57.77223 12.86004 13805 ft 385 kts 40°
2026-05-05 18:40 57.79117 12.89608 14341 ft 390 kts 40°
2026-05-05 18:40 57.81030 12.93248 14903 ft 393 kts 40°
2026-05-05 18:40 57.82957 12.96917 15522 ft 396 kts 40°
2026-05-05 18:41 57.84894 13.00613 16082 ft 399 kts 40°
2026-05-05 18:41 57.86854 13.04361 16639 ft 403 kts 40°
2026-05-05 18:41 57.88824 13.08140 17190 ft 407 kts 40°
2026-05-05 18:41 57.90809 13.11962 17730 ft 412 kts 40°
2026-05-05 18:42 57.92823 13.15838 18269 ft 416 kts 40°
2026-05-05 18:42 57.94849 13.19737 18755 ft 420 kts 40°
2026-05-05 18:42 57.96897 13.23689 19251 ft 423 kts 40°
2026-05-05 18:42 57.98964 13.27680 19756 ft 427 kts 40°
2026-05-05 18:43 58.01045 13.31707 20318 ft 431 kts 40°
2026-05-05 18:43 58.03148 13.35792 20818 ft 435 kts 40°
2026-05-05 18:43 58.05264 13.39906 21313 ft 438 kts 40°
2026-05-05 18:43 58.07390 13.44046 21779 ft 442 kts 40°
2026-05-05 18:44 58.09544 13.48251 22251 ft 446 kts 40°
2026-05-05 18:44 58.11706 13.52479 22712 ft 449 kts 40°
2026-05-05 18:44 58.13882 13.56732 23173 ft 453 kts 40°
2026-05-05 18:44 58.16089 13.61054 23609 ft 456 kts 40°
2026-05-05 18:45 58.18295 13.65393 23980 ft 460 kts 40°
2026-05-05 18:45 58.20519 13.69776 24356 ft 462 kts 40°
2026-05-05 18:45 58.22751 13.74185 24743 ft 465 kts 40°
2026-05-05 18:45 58.24995 13.78628 25111 ft 467 kts 40°
2026-05-05 18:46 58.27249 13.83103 25492 ft 469 kts 41°
2026-05-05 18:46 58.29507 13.87593 25878 ft 472 kts 40°
2026-05-05 18:46 58.31777 13.92108 26208 ft 475 kts 40°
2026-05-05 18:46 58.34069 13.96676 26556 ft 478 kts 40°
2026-05-05 18:47 58.36366 14.01256 26889 ft 480 kts 40°
2026-05-05 18:47 58.38678 14.05871 27234 ft 482 kts 41°
2026-05-05 18:47 58.40990 14.10494 27569 ft 484 kts 41°
2026-05-05 18:47 58.43331 14.15189 27906 ft 487 kts 41°
2026-05-05 18:48 58.45638 14.19826 28242 ft 489 kts 41°
2026-05-05 18:48 58.47974 14.24535 28566 ft 491 kts 41°
2026-05-05 18:48 58.50321 14.29280 28892 ft 494 kts 41°
2026-05-05 18:48 58.52688 14.34088 29278 ft 496 kts 41°
2026-05-05 18:49 58.55063 14.38923 29592 ft 498 kts 41°
2026-05-05 18:49 58.57447 14.43780 29944 ft 499 kts 41°
2026-05-05 18:49 58.59819 14.48618 30341 ft 498 kts 41°
2026-05-05 18:49 58.62195 14.53475 30729 ft 498 kts 41°
2026-05-05 18:50 58.64565 14.58329 30860 ft 498 kts 41°
2026-05-05 18:50 58.66919 14.63163 30924 ft 493 kts 41°
2026-05-05 18:50 58.71575 14.72758 30928 ft 489 kts 41°
2026-05-05 18:51 58.76208 14.82331 30947 ft 489 kts 41°
2026-05-05 18:51 58.80843 14.91934 30919 ft 488 kts 41°
2026-05-05 18:52 58.85458 15.01551 30916 ft 488 kts 41°
2026-05-05 18:52 58.90063 15.11208 30920 ft 488 kts 41°
2026-05-05 18:53 58.94629 15.20815 30906 ft 488 kts 41°
2026-05-05 18:53 58.96928 15.25657 30539 ft 488 kts 41°
2026-05-05 18:53 58.99241 15.30535 29852 ft 491 kts 41°
2026-05-05 18:54 59.01539 15.35403 29250 ft 488 kts 41°
2026-05-05 18:54 59.03826 15.40268 28728 ft 484 kts 41°
2026-05-05 18:54 59.06076 15.45089 28141 ft 482 kts 44°
2026-05-05 18:54 59.08030 15.50467 27380 ft 489 kts 53°
2026-05-05 18:55 59.09854 15.55990 27016 ft 480 kts 53°
2026-05-05 18:55 59.11654 15.61427 26381 ft 476 kts 53°
2026-05-05 18:55 59.13442 15.66811 25752 ft 473 kts 53°
2026-05-05 18:55 59.15217 15.72161 25248 ft 467 kts 53°
2026-05-05 18:56 59.16959 15.77431 24762 ft 462 kts 53°
2026-05-05 18:56 59.18686 15.82668 24254 ft 458 kts 53°
2026-05-05 18:56 59.19821 15.86116 23922 ft 456 kts 53°
2026-05-05 18:56 59.21532 15.91312 23402 ft 455 kts 53°
2026-05-05 18:57 59.23237 15.96505 22818 ft 452 kts 53°
2026-05-05 18:57 59.24918 16.01650 22297 ft 447 kts 53°
2026-05-05 18:57 59.26558 16.06686 21777 ft 442 kts 53°
2026-05-05 18:57 59.28189 16.11708 21257 ft 437 kts 52°
2026-05-05 18:58 59.29810 16.16711 20734 ft 433 kts 52°
2026-05-05 18:58 59.31411 16.21659 20219 ft 429 kts 52°
2026-05-05 18:58 59.32989 16.26541 19714 ft 425 kts 52°
2026-05-05 18:58 59.34564 16.31407 19203 ft 422 kts 52°
2026-05-05 18:59 59.36126 16.36248 18682 ft 419 kts 52°
2026-05-05 18:59 59.37673 16.41061 18195 ft 415 kts 52°
2026-05-05 18:59 59.39203 16.45834 17649 ft 412 kts 53°
2026-05-05 18:59 59.40716 16.50571 17158 ft 406 kts 53°
2026-05-05 19:00 59.42205 16.55243 16686 ft 402 kts 53°
2026-05-05 19:00 59.43676 16.59876 16179 ft 397 kts 53°
2026-05-05 19:00 59.45126 16.64446 15704 ft 391 kts 53°
2026-05-05 19:00 59.46558 16.68957 15231 ft 385 kts 53°
2026-05-05 19:01 59.47966 16.73392 14769 ft 379 kts 54°
2026-05-05 19:01 59.49351 16.77759 14318 ft 372 kts 54°
2026-05-05 19:01 59.50707 16.82044 13900 ft 365 kts 54°
2026-05-05 19:01 59.52031 16.86236 13444 ft 358 kts 54°
2026-05-05 19:02 59.53331 16.90371 12907 ft 352 kts 54°
2026-05-05 19:02 59.54618 16.94472 12487 ft 351 kts 55°
2026-05-05 19:02 59.55894 16.98557 12065 ft 349 kts 55°
2026-05-05 19:02 59.57161 17.02610 11641 ft 345 kts 55°
2026-05-05 19:03 59.58419 17.06641 11200 ft 342 kts 55°
2026-05-05 19:03 59.59659 17.10619 10805 ft 339 kts 55°
2026-05-05 19:03 59.60875 17.14527 10621 ft 329 kts 55°
2026-05-05 19:03 59.62057 17.18330 10436 ft 320 kts 55°
2026-05-05 19:04 59.63209 17.22042 10264 ft 312 kts 56°
2026-05-05 19:04 59.64326 17.25642 10082 ft 304 kts 56°
2026-05-05 19:04 59.65419 17.29171 9892 ft 298 kts 56°
2026-05-05 19:04 59.66491 17.32637 9588 ft 294 kts 56°
2026-05-05 19:05 59.67553 17.36083 9258 ft 292 kts 56°
2026-05-05 19:05 59.68610 17.39517 8887 ft 291 kts 56°
2026-05-05 19:05 59.69686 17.43006 8212 ft 302 kts 56°
2026-05-05 19:05 59.70764 17.46513 8060 ft 293 kts 56°
2026-05-05 19:06 59.71805 17.49919 7821 ft 287 kts 56°
2026-05-05 19:06 59.72841 17.53291 7511 ft 285 kts 56°
2026-05-05 19:06 59.73884 17.56627 7192 ft 283 kts 52°
2026-05-05 19:06 59.75200 17.59433 6979 ft 273 kts 39°
2026-05-05 19:07 59.76586 17.61909 6868 ft 264 kts 38°
2026-05-05 19:07 59.77941 17.64296 6737 ft 256 kts 38°
2026-05-05 19:07 59.79251 17.66609 6606 ft 248 kts 38°
2026-05-05 19:07 59.80414 17.69108 6392 ft 248 kts 58°
2026-05-05 19:08 59.81102 17.72155 6208 ft 243 kts 66°
2026-05-05 19:08 59.81680 17.75277 5944 ft 239 kts 68°
2026-05-05 19:08 59.82238 17.78379 5634 ft 235 kts 68°
2026-05-05 19:08 59.82772 17.81378 5379 ft 228 kts 68°
2026-05-05 19:09 59.83297 17.84328 5059 ft 226 kts 68°
2026-05-05 19:09 59.83819 17.87238 4773 ft 221 kts 68°
2026-05-05 19:09 59.84297 17.90016 4647 ft 205 kts 74°
2026-05-05 19:09 59.84224 17.92766 4296 ft 201 kts 114°
2026-05-05 19:10 59.83334 17.94822 3914 ft 195 kts 155°
2026-05-05 19:10 59.82072 17.95695 3512 ft 192 kts 170°
2026-05-05 19:10 59.80766 17.96249 3103 ft 192 kts 172°
2026-05-05 19:10 59.79470 17.96944 2771 ft 194 kts 164°
2026-05-05 19:11 59.78201 17.97823 2538 ft 192 kts 163°
2026-05-05 19:11 59.76940 17.98719 2482 ft 192 kts 163°
2026-05-05 19:11 59.75662 17.99524 2372 ft 194 kts 174°
2026-05-05 19:11 59.74347 17.99348 2106 ft 188 kts 193°
2026-05-05 19:12 59.73069 17.98875 1831 ft 182 kts 192°
2026-05-05 19:12 59.71860 17.98430 1591 ft 172 kts 192°
2026-05-05 19:12 59.70720 17.98014 1348 ft 161 kts 192°
2026-05-05 19:12 59.69652 17.97623 1146 ft 152 kts 191°
2026-05-05 19:13 59.68625 17.97249 927 ft 148 kts 190°
2026-05-05 19:13 59.67617 17.96883 710 ft 147 kts 188°
2026-05-05 19:13 59.66620 17.96518 495 ft 145 kts 188°
2026-05-05 19:13 59.65634 17.96161 302 ft 144 kts 188°
2026-05-05 19:14 59.64653 17.95803 115 ft 142 kts 188°
2026-05-05 19:14 59.63823 17.95515 116 ft 97 kts 191°
2026-05-05 19:14 59.63336 17.95335 123 ft 46 kts 190°
2026-05-05 19:14 59.63104 17.95234 132 ft 29 kts 201°
2026-05-05 19:15 59.62965 17.95087 136 ft 20 kts 216°
2026-05-05 19:15 59.62869 17.94932 137 ft 14 kts 221°
2026-05-05 19:15 59.62869 17.94756 138 ft 15 kts 327°